Satellite: RESURS
Catalog number: 25394
Epoch time: 09284.92505538
Element set: 0349
Inclination: 098.3322 deg
RA of node: 311.2835 deg
Eccentricity: 0.0000603
Arg of perigee: 205.4102 deg
Mean anomaly: 154.7049 deg
Mean motion: 14.24188473 rev/day
Decay rate: -3.8e-07 rev/day^2
Epoch rev: 58501
Checksum: 285
Satellite: FENGYUN1
Catalog number: 25730
Epoch time: 09285.89441048
Element set: 873
Inclination: 098.7638 deg
RA of node: 252.5772 deg
Eccentricity: 0.0020896
Arg of perigee: 243.7231 deg
Mean anomaly: 116.1793 deg
Mean motion: 14.08008994 rev/day
Decay rate: 6.11e-06 rev/day^2
Epoch rev: 53688
Checksum: 334
Satellite: OKEAN-0
Catalog number: 25860
Epoch time: 09284.82886633
Element set: 0808
Inclination: 097.8007 deg
RA of node: 261.4617 deg
Eccentricity: 0.0001308
Arg of perigee: 099.7703 deg
Mean anomaly: 260.3650 deg
Mean motion: 14.73590925 rev/day
Decay rate: 1.1e-07 rev/day^2
Epoch rev: 55032
Checksum: 304
Satellite: NOAA-16
Catalog number: 26536
Epoch time: 09285.59360091
Element set: 595
Inclination: 099.1806 deg
RA of node: 292.1241 deg
Eccentricity: 0.0009862
Arg of perigee: 315.5134 deg
Mean anomaly: 044.5253 deg
Mean motion: 14.12532956 rev/day
Decay rate: -2.14e-06 rev/day^2
Epoch rev: 46687
Checksum: 316
Satellite: NOAA-17
Catalog number: 27453
Epoch time: 09285.47628549
Element set: 586
Inclination: 098.4694 deg
RA of node: 340.4252 deg
Eccentricity: 0.0012427
Arg of perigee: 137.8829 deg
Mean anomaly: 222.3322 deg
Mean motion: 14.24098373 rev/day
Decay rate: 2.00e-06 rev/day^2
Epoch rev: 37944
Checksum: 327
Satellite: NOAA-18
Catalog number: 28654
Epoch time: 09285.52369343
Element set: 74
Inclination: 098.9179 deg
RA of node: 227.9048 deg
Eccentricity: 0.0014961
Arg of perigee: 034.7395 deg
Mean anomaly: 325.4730 deg
Mean motion: 14.11293404 rev/day
Decay rate: 1.10e-06 rev/day^2
Epoch rev: 22650
Checksum: 311
Satellite: NOAA-19
Catalog number: 33591
Epoch time: 09285.52888989
Element set: 279
Inclination: 098.7573 deg
RA of node: 228.2915 deg
Eccentricity: 0.0013237
Arg of perigee: 272.0128 deg
Mean anomaly: 087.9503 deg
Mean motion: 14.10993165 rev/day
Decay rate: 1.57e-06 rev/day^2
Epoch rev: 3498
Checksum: 354
/EX
SB KEPS @ AMSAT $ORB09285.M
Orbital Elements 09285.MISC
HR AMSAT ORBITAL ELEMENTS FOR MANNED AND MISCELLANEOUS SATELLITES
FROM WA5QGD FORT WORTH,TX October 12, 2009
Send Subscribe/unsubscribe to KEPS at
http://www.amsat.org/mailman/listinfo/keps
BID: ORB09285.M
TO ALL RADIO AMATEURS BT
Satellite: HUBBLE
Catalog number: 20580
Epoch time: 09281.76047754
Element set: 0459
Inclination: 028.4690 deg
RA of node: 081.0453 deg
Eccentricity: 0.0003227
Arg of perigee: 051.7299 deg
Mean anomaly: 308.3589 deg
Mean motion: 15.00837656 rev/day
Decay rate: 3.57e-06 rev/day^2
Epoch rev: 86693
Checksum: 323
Satellite: ISS
Catalog number: 25544
Epoch time: 09285.84058921
Element set: 771
Inclination: 051.6415 deg
RA of node: 062.7187 deg
Eccentricity: 0.0007592
Arg of perigee: 191.6753 deg
Mean anomaly: 329.5685 deg
Mean motion: 15.74813454 rev/day
Decay rate: 1.5548e-04 rev/day^2
Epoch rev: 62448
Checksum: 338
Satellite: CO-58
Catalog number: 28895
Epoch time: 09283.21775713
Element set: 0417
Inclination: 098.0403 deg
RA of node: 170.5063 deg
Eccentricity: 0.0017697
Arg of perigee: 351.5945 deg
Mean anomaly: 008.4942 deg
Mean motion: 14.59801165 rev/day
Decay rate: -4.3e-07 rev/day^2
Epoch rev: 21051
Checksum: 315
Satellite: FALCON
Catalog number: 30776
Epoch time: 09284.92286384
Element set: 0692
Inclination: 035.4328 deg
RA of node: 111.1153 deg
Eccentricity: 0.0001490
Arg of perigee: 264.2101 deg
Mean anomaly: 095.8446 deg
Mean motion: 15.03325586 rev/day
Decay rate: 3.80e-06 rev/day^2
Epoch rev: 14267
Checksum: 287
Satellite: MAST
Catalog number: 31126
Epoch time: 09284.78662288
Element set: 706
Inclination: 097.9760 deg
RA of node: 334.1711 deg
Eccentricity: 0.0093592
Arg of perigee: 278.1118 deg
Mean anomaly: 080.9476 deg
Mean motion: 14.53521384 rev/day
Decay rate: 1.7e-07 rev/day^2
Epoch rev: 13197
Checksum: 319
Satellite: CAPE1
Catalog number: 31130
Epoch time: 09284.66473203
Element set: 0718
Inclination: 097.9771 deg
RA of node: 331.9806 deg
Eccentricity: 0.0101562
Arg of perigee: 284.7794 deg
Mean anomaly: 074.2165 deg
Mean motion: 14.52091961 rev/day
Decay rate: -6.1e-07 rev/day^2
Epoch rev: 13159
Checksum: 305
Satellite: COMPASS
Catalog number: 32787
Epoch time: 09285.20568781
Element set: 487
Inclination: 097.9271 deg
RA of node: 347.9635 deg
Eccentricity: 0.0016035
Arg of perigee: 016.7093 deg
Mean anomaly: 343.4646 deg
Mean motion: 14.81667885 rev/day
Decay rate: 1.65e-06 rev/day^2
Epoch rev: 7877
Checksum: 354
Satellite: AAUSAT2
Catalog number: 32788
Epoch time: 09285.70397222
Element set: 482
Inclination: 097.9304 deg
RA of node: 348.5367 deg
Eccentricity: 0.0016123
Arg of perigee: 016.0220 deg
Mean anomaly: 344.1500 deg
Mean motion: 14.81795549 rev/day
Decay rate: 3.06e-06 rev/day^2
Epoch rev: 7885
Checksum: 308
Satellite: DO-64
Catalog number: 32789
Epoch time: 09285.72546152
Element set: 498
Inclination: 097.9328 deg
RA of node: 348.7982 deg
Eccentricity: 0.0015951
Arg of perigee: 013.7671 deg
Mean anomaly: 346.3968 deg
Mean motion: 14.81812304 rev/day
Decay rate: 1.18e-06 rev/day^2
Epoch rev: 7885
Checksum: 360
Satellite: CO-66
Catalog number: 32791
Epoch time: 09285.19478266
Element set: 479
Inclination: 097.9318 deg
RA of node: 347.9846 deg
Eccentricity: 0.0016564
Arg of perigee: 014.1871 deg
Mean anomaly: 345.9794 deg
Mean motion: 14.81487750 rev/day
Decay rate: -5.5e-07 rev/day^2
Epoch rev: 7873
Checksum: 376
Satellite: RS-30
Catalog number: 32953
Epoch time: 09284.81913547
Element set: 426
Inclination: 082.5052 deg
RA of node: 184.0982 deg
Eccentricity: 0.0018407
Arg of perigee: 288.2389 deg
Mean anomaly: 071.6690 deg
Mean motion: 12.43003059 rev/day
Decay rate: 1.0e-07 rev/day^2
Epoch rev: 6288
Checksum: 304
Satellite: TACSAT-3
Catalog number: 35001
Epoch time: 09284.94535051
Element set: 0121
Inclination: 040.4575 deg
RA of node: 262.2243 deg
Eccentricity: 0.0025218
Arg of perigee: 310.0168 deg
Mean anomaly: 049.8437 deg
Mean motion: 15.39300082 rev/day
Decay rate: 2.355e-05 rev/day^2
Epoch rev: 02234
Checksum: 255
Satellite: PHARMSAT
Catalog number: 35002
Epoch time: 09284.35475206
Element set: 0120
Inclination: 040.4691 deg
RA of node: 264.9235 deg
Eccentricity: 0.0028001
Arg of perigee: 309.1968 deg
Mean anomaly: 050.6361 deg
Mean motion: 15.40039193 rev/day
Decay rate: 2.016e-05 rev/day^2
Epoch rev: 02225
Checksum: 254
Satellite: HAWKSAT1
Catalog number: 35003
Epoch time: 09284.94888842
Element set: 0119
Inclination: 040.4638 deg
RA of node: 260.5028 deg
Eccentricity: 0.0028265
Arg of perigee: 317.1930 deg
Mean anomaly: 042.6719 deg
Mean motion: 15.40879269 rev/day
Decay rate: 4.242e-05 rev/day^2
Epoch rev: 02236
Checksum: 305
Satellite: CP6
Catalog number: 35004
Epoch time: 09284.94661405
Element set: 0113
Inclination: 040.4640 deg
RA of node: 260.4906 deg
Eccentricity: 0.0027762
Arg of perigee: 317.5549 deg
Mean anomaly: 042.3133 deg
Mean motion: 15.40971510 rev/day
Decay rate: 4.780e-05 rev/day^2
Epoch rev: 02235
Checksum: 272
Satellite: AEROCUB3
Catalog number: 35005
Epoch time: 09284.96457133
Element set: 0122
Inclination: 040.4760 deg
RA of node: 260.7899 deg
Eccentricity: 0.0027838
Arg of perigee: 314.4920 deg
Mean anomaly: 045.3654 deg
Mean motion: 15.40751180 rev/day
Decay rate: 4.768e-05 rev/day^2
Epoch rev: 02235
Checksum: 299
Satellite: DRAGNSAT
Catalog number: 35690
Epoch time: 09284.80378540
Element set: 0076
Inclination: 051.6416 deg
RA of node: 063.5471 deg
Eccentricity: 0.0004045
Arg of perigee: 355.4022 deg
Mean anomaly: 004.6973 deg
Mean motion: 15.83939927 rev/day
Decay rate: 3.2661e-04 rev/day^2
Epoch rev: 01160
Checksum: 295
Satellite: POLLUX
Catalog number: 35693
Epoch time: 09285.77832344
Element set: 73
Inclination: 051.6402 deg
RA of node: 058.8149 deg
Eccentricity: 0.0003511
Arg of perigee: 306.2170 deg
Mean anomaly: 053.8655 deg
Mean motion: 15.83225810 rev/day
Decay rate: 3.0924e-04 rev/day^2
Epoch rev: 1172
Checksum: 283
Satellite: CASTOR
Catalog number: 35694
Epoch time: 09284.80289517
Element set: 0070
Inclination: 051.6406 deg
RA of node: 064.3194 deg
Eccentricity: 0.0003314
Arg of perigee: 304.6725 deg
Mean anomaly: 055.3981 deg
Mean motion: 15.81593859 rev/day
Decay rate: 1.4690e-04 rev/day^2
Epoch rev: 01156
Checksum: 309
Satellite: METEOR-M
Catalog number: 35865
Epoch time: 09284.86286414
Element set: 0023
Inclination: 098.7970 deg
RA of node: 334.9699 deg
Eccentricity: 0.0003006
Arg of perigee: 018.0496 deg
Mean anomaly: 342.0763 deg
Mean motion: 14.21827135 rev/day
Decay rate: 1.76e-06 rev/day^2
Epoch rev: 00343
Checksum: 307
Satellite: STERKH-2
Catalog number: 35866
Epoch time: 09284.85490013
Element set: 0026
Inclination: 098.7970 deg
RA of node: 334.9841 deg
Eccentricity: 0.0003782
Arg of perigee: 011.9362 deg
Mean anomaly: 348.1881 deg
Mean motion: 14.22296629 rev/day
Decay rate: 1.78e-06 rev/day^2
Epoch rev: 00343
Checksum: 317
Satellite: FREGAT-I
Catalog number: 35867
Epoch time: 09284.84547142
Element set: 36
Inclination: 097.3705 deg
RA of node: 334.4703 deg
Eccentricity: 0.0009498
Arg of perigee: 195.7614 deg
Mean anomaly: 164.3227 deg
Mean motion: 15.22724818 rev/day
Decay rate: 2.265e-05 rev/day^2
Epoch rev: 367
Checksum: 319
